[[{"header":{"parameterUnit":"m.s-1","parameterCategory":1,"la1":30.2991,"la2":30.254,"lo1":-89.0895,"lo2":-89.0444,"dy":0.0017,"dx":0.0017,"nx":28,"ny":28,"refTime":"2024-10-11T21:00:00:Z","depth":0,"parameterNumber":2,"parameterNumberName":"U-component_of_WINDS"},"data":[0,0,0,0,0,0,0,0,0,0,0,0,0,0,0,0,0,0,0,0,0,0,0,0,0,0,0,0,0,0,0,0,0,0,0,0,0,0,0,0,0,0,0,0,0,0,0,0,0,0,0,0,0,0,0,0,0,0,0.2514,0.2515,0,0.2548,0.2548,0.2548,0.2568,0.2568,0.2568,0.2568,0.2604,0.2605,0.2606,0,0,0,0,0,0,0,0,0,0,0,0,0,0.2468,0.2469,0.2514,0.2515,0.2515,0.2548,0.2548,0.2549,0.2568,0.2568,0.2568,0.2568,0.2604,0.2605,0.2606,0,0,0,0,0,0,0,0,0,0,0,0,0,0.2493,0.2469,0.2514,0.2529,0.253,0.2547,0.2548,0.2549,0.2568,0.2568,0.2568,0.2568,0.2603,0.2605,0.2606,0.2612,0,0,0.261,0.2611,0,0,0,0,0,0,0,0,0.2492,0.2495,0.2526,0.2528,0.2529,0.2554,0.2545,0.257,0.2568,0.2554,0.2568,0.2568,0.2587,0.259,0.2596,0.2614,0.2615,0.261,0.2611,0.2612,0.2612,0,0,0,0,0,0,0,0.249,0.2494,0.2528,0.2526,0.2529,0.2534,0.2537,0.255,0.2569,0.2555,0.2556,0.256,0.2588,0.2595,0.2597,0.2616,0.261,0.2611,0.2612,0.2613,0.2639,0.2639,0,0,0,0,0,0,0.2486,0.2492,0.2526,0.2529,0.251,0.2534,0.2538,0.2546,0.2569,0.2573,0.256,0.2561,0.2592,0.2595,0.2598,0.2606,0.2612,0.2613,0.2614,0.2639,0.2639,0.2639,0,0,0,0,0,0,0.2485,0.2489,0.2525,0.2511,0.2516,0.2535,0.2543,0.2546,0.2553,0.2573,0.2577,0.2563,0.2593,0.2596,0.2608,0.2608,0.2613,0.2615,0.2639,0.2639,0.2639,0.2622,0,0,0,0,0,0,0.2483,0.2488,0.2491,0.2511,0.2516,0.2534,0.2543,0.2547,0.2555,0.2556,0.2577,0.258,0.2593,0.2606,0.2609,0.261,0.2616,0.2639,0.2639,0.2639,0.2623,0.2621,0.262,0,0,0,0,0,0.2482,0.2486,0.2491,0.2495,0.252,0.2534,0.2537,0.2551,0.2555,0.2557,0.257,0.258,0.2607,0.2607,0.2611,0.2612,0.2639,0.2639,0.2639,0.2623,0.2622,0.262,0,0,0,0,0,0,0.2466,0.2489,0.2495,0.2505,0.2517,0.2537,0.2541,0.2549,0.2562,0.2563,0.258,0.2584,0.2594,0.2604,0.2604,0.2618,0.2624,0.2625,0.2611,0.261,0.2608,0.2606,0.2617,0,0,0,0,0,0.2464,0.2473,0.2492,0.25,0.2505,0.2522,0.2529,0.2538,0.2552,0.2558,0.2571,0.2585,0.2596,0.2604,0.2615,0.2624,0.2628,0.2627,0.2625,0.2624,0.2624,0.2628,0.2627,0.2638,0.2638,0.2638,0,0,0.246,0.2473,0.2478,0.2497,0.2508,0.2517,0.2527,0.2536,0.2543,0.2559,0.2571,0.2581,0.2597,0.2607,0.2612,0.2616,0.2622,0.2624,0.2623,0.2624,0.2628,0.2627,0.2626,0.2638,0.2638,0.2638,0,0,0.2457,0.2468,0.2474,0.2484,0.25,0.2511,0.2512,0.253,0.2537,0.2549,0.2561,0.2569,0.2589,0.2599,0.2607,0.2606,0.2615,0.2609,0.2603,0.2606,0.2605,0.2605,0.2603,0.2603,0.2609,0.2609,0.2609,0,0.2449,0.2463,0.2477,0.2485,0.2493,0.2507,0.2513,0.2523,0.2542,0.2546,0.255,0.2574,0.2586,0.2597,0.2597,0.2603,0.2605,0.2607,0.2604,0.2604,0.2603,0.2602,0.2602,0.2608,0.2609,0.2609,0.2609,0,0.2454,0.2463,0.2466,0.2483,0.2491,0.2499,0.2513,0.2519,0.2528,0.2538,0.2549,0.2563,0.2577,0.2581,0.2589,0.2593,0.2595,0.2601,0.2608,0.2601,0.2601,0.26,0.2607,0.2608,0.2608,0.2608,0,0,0.2443,0.2465,0.2466,0.2473,0.2491,0.2498,0.2506,0.2519,0.2523,0.2536,0.2542,0.2558,0.2563,0.2572,0.2582,0.2585,0.2581,0.2591,0.2591,0.2588,0.2585,0.258,0.2579,0.2587,0.2587,0.2587,0.2583,0,0.2442,0.2456,0.2467,0.2477,0.2485,0.2498,0.2504,0.2515,0.2524,0.2533,0.2543,0.2554,0.256,0.2566,0.2569,0.2581,0.2581,0.2581,0.2593,0.2593,0.2588,0.2579,0.2574,0.257,0.2583,0.2583,0.2583,0,0.2443,0.2453,0.2463,0.2478,0.2482,0.2488,0.2499,0.2507,0.252,0.2526,0.2535,0.2545,0.2553,0.2558,0.2569,0.2569,0.2574,0.258,0.2581,0.2582,0.2588,0.258,0.2569,0.2568,0.2583,0.2583,0.2583,0,0.2434,0.245,0.2458,0.2463,0.2481,0.2484,0.2492,0.2504,0.2511,0.2521,0.2525,0.2537,0.2543,0.2551,0.2564,0.2566,0.2573,0.258,0.2578,0.2578,0.2579,0.2579,0.2569,0.2583,0.2583,0.2583,0.2583,0,0.2431,0.2437,0.2453,0.2458,0.2464,0.2477,0.2483,0.2491,0.2502,0.2508,0.252,0.2526,0.2542,0.2549,0.2559,0.2566,0.2569,0.2574,0.2577,0.2573,0.2572,0.2577,0.2577,0.2583,0.2583,0.2583,0.2583,0,0.2422,0.2433,0.2442,0.2457,0.2461,0.2465,0.2478,0.2483,0.2492,0.25,0.2502,0.2517,0.2526,0.2539,0.2553,0.2559,0.2565,0.2569,0.256,0.2562,0.2559,0.2559,0.2551,0.2551,0.2566,0.2565,0.2565,0,0.242,0.2424,0.2439,0.2443,0.245,0.2458,0.2464,0.2476,0.2482,0.2495,0.2498,0.2508,0.2517,0.2531,0.2543,0.2553,0.2557,0.2554,0.2559,0.2554,0.2556,0.2555,0.2555,0.2552,0.2552,0.2552,0.2552,0,0.2414,0.2419,0.2427,0.2436,0.2443,0.2451,0.246,0.2463,0.2477,0.2483,0.2492,0.2498,0.2511,0.2521,0.2532,0.254,0.2548,0.255,0.255,0.2546,0.2541,0.2543,0.2556,0.255,0.255,0.2551,0.2551,0.2551,0.2408,0.2412,0.2422,0.243,0.2438,0.2445,0.245,0.2459,0.2466,0.2477,0.2484,0.2492,0.2503,0.2518,0.2526,0.2532,0.2536,0.2536,0.2536,0.2536,0.2534,0.2539,0.2534,0.2534,0.2534,0.2535,0.2535,0,0.2403,0.2409,0.2417,0.2428,0.2433,0.2439,0.2449,0.2454,0.246,0.2469,0.2477,0.2486,0.2495,0.2507,0.2516,0.2519,0.2523,0.2521,0.2521,0.2522,0.2531,0.253,0.2517,0.2517,0.2517,0.2517,0.2517,0.2517,0.2401,0.2407,0.2412,0.2422,0.2429,0.2436,0.2441,0.2447,0.2454,0.2464,0.2471,0.2478,0.2488,0.2497,0.2505,0.2508,0.2511,0.2508,0.2512,0.252,0.2522,0.2523,0.2522,0.2508,0.2508,0.2502,0.2502,0.2502]},{"header":{"parameterUnit":"m.s-1","parameterCategory":1,"la1":30.2991,"la2":30.254,"lo1":-89.0895,"lo2":-89.0444,"dy":0.0017,"dx":0.0017,"nx":28,"ny":28,"refTime":"2024-10-11T21:00:00:Z","depth":0,"parameterNumber":3,"parameterNumberName":"V-component_of_WINDS"},"data":[0,0,0,0,0,0,0,0,0,0,0,0,0,0,0,0,0,0,0,0,0,0,0,0,0,0,0,0,0,0,0,0,0,0,0,0,0,0,0,0,0,0,0,0,0,0,0,0,0,0,0,0,0,0,0,0,0,0,2.8788,2.8788,0,2.8751,2.875,2.875,2.8774,2.8776,2.8777,2.8778,2.8734,2.8732,2.8729,0,0,0,0,0,0,0,0,0,0,0,0,0,2.8874,2.8872,2.8788,2.8788,2.8787,2.8751,2.875,2.875,2.8774,2.8776,2.8777,2.8778,2.8735,2.8732,2.8729,0,0,0,0,0,0,0,0,0,0,0,0,0,2.8836,2.8872,2.8788,2.8795,2.8795,2.8751,2.875,2.875,2.8774,2.8776,2.8777,2.8779,2.8735,2.8732,2.8729,2.8674,0,0,2.8719,2.8717,0,0,0,0,0,0,0,0,2.8838,2.8833,2.8795,2.8795,2.8795,2.8769,2.8765,2.8724,2.8773,2.8782,2.8778,2.878,2.8744,2.874,2.8729,2.8672,2.867,2.8718,2.8716,2.8715,2.8714,0,0,0,0,0,0,0,2.8841,2.8835,2.8773,2.8794,2.8794,2.8798,2.8794,2.8757,2.8753,2.8781,2.8783,2.8779,2.8744,2.8732,2.8728,2.8669,2.8718,2.8716,2.8713,2.8712,2.8562,2.856,0,0,0,0,0,0,2.8844,2.8837,2.8774,2.8772,2.8821,2.8795,2.8791,2.8776,2.8754,2.8753,2.8777,2.878,2.8737,2.8732,2.8727,2.8658,2.8715,2.8712,2.871,2.8564,2.8561,2.8559,0,0,0,0,0,0,2.8846,2.8838,2.8776,2.8805,2.8797,2.8792,2.8774,2.8774,2.8762,2.8751,2.875,2.8766,2.8738,2.8731,2.8687,2.8657,2.871,2.8707,2.8566,2.8563,2.856,2.8523,0,0,0,0,0,0,2.8848,2.8839,2.8819,2.8804,2.8796,2.8738,2.8772,2.8772,2.8757,2.876,2.874,2.8738,2.8739,2.8691,2.8683,2.8654,2.8705,2.8569,2.8565,2.8561,2.8526,2.8519,2.8512,0,0,0,0,0,2.8851,2.881,2.8818,2.8811,2.8772,2.8737,2.8731,2.8735,2.8755,2.8734,2.8726,2.8739,2.8662,2.8687,2.8678,2.8646,2.857,2.8566,2.8561,2.853,2.852,2.8512,0,0,0,0,0,0,2.882,2.8808,2.8817,2.877,2.8754,2.8741,2.8715,2.8725,2.8702,2.8705,2.8709,2.8704,2.8656,2.8647,2.8675,2.859,2.8619,2.8613,2.8598,2.8589,2.8582,2.8584,2.8702,0,0,0,0,0,2.8808,2.8782,2.8773,2.8732,2.8724,2.8721,2.8705,2.8709,2.8692,2.8685,2.8674,2.8655,2.8627,2.8608,2.8581,2.8526,2.852,2.85,2.8493,2.8487,2.848,2.8447,2.8437,2.8544,2.8544,2.8545,0,0,2.8782,2.8772,2.8756,2.8725,2.8714,2.8684,2.8715,2.8683,2.8661,2.868,2.8636,2.8628,2.8607,2.8556,2.8533,2.8546,2.845,2.8481,2.8477,2.8473,2.8441,2.8431,2.8422,2.8541,2.8542,2.8542,0,0,2.872,2.8711,2.8675,2.8663,2.8645,2.8643,2.8634,2.8619,2.8614,2.8571,2.8584,2.8556,2.8508,2.8491,2.8477,2.8406,2.8416,2.8398,2.8359,2.8327,2.8318,2.8311,2.8282,2.8273,2.8392,2.8392,2.8392,0,2.8689,2.8648,2.8655,2.8622,2.8607,2.8624,2.8586,2.8573,2.8546,2.8534,2.8551,2.8489,2.8476,2.842,2.8402,2.8391,2.8378,2.8399,2.8319,2.8312,2.8305,2.8278,2.8267,2.8389,2.839,2.839,2.839,0,2.861,2.8581,2.8553,2.8528,2.851,2.8475,2.8474,2.8454,2.846,2.8455,2.8409,2.8395,2.8364,2.8351,2.8356,2.8294,2.8303,2.832,2.8348,2.8292,2.8266,2.8256,2.8386,2.8387,2.8387,2.8388,0,0,2.8526,2.8505,2.8495,2.8482,2.8463,2.8439,2.8404,2.8375,2.8357,2.8338,2.8305,2.8263,2.8278,2.8261,2.8264,2.8235,2.8176,2.8255,2.8254,2.8238,2.8104,2.809,2.8078,2.8184,2.8182,2.818,2.8105,0,2.846,2.84,2.8404,2.8345,2.8316,2.8332,2.83,2.8284,2.8278,2.8251,2.8244,2.8213,2.8236,2.8226,2.8199,2.8189,2.8149,2.8195,2.815,2.8149,2.8152,2.8065,2.805,2.798,2.8095,2.8093,2.8092,0,2.8376,2.8354,2.8293,2.8276,2.8264,2.8236,2.8208,2.8184,2.8164,2.8161,2.8142,2.8149,2.8109,2.8141,2.8084,2.8115,2.8097,2.809,2.8087,2.808,2.8115,2.8053,2.7958,2.7946,2.8077,2.8078,2.8079,0,2.8317,2.8273,2.823,2.8219,2.8199,2.8178,2.8168,2.8151,2.8132,2.8108,2.8095,2.8067,2.805,2.8026,2.8023,2.8047,2.7965,2.7997,2.7959,2.7959,2.7939,2.794,2.7836,2.7932,2.7932,2.7933,2.7933,0,2.8241,2.8202,2.8203,2.8176,2.8132,2.8136,2.8092,2.8084,2.8068,2.8037,2.8049,2.802,2.802,2.7989,2.7987,2.7939,2.7932,2.7926,2.7926,2.7924,2.7924,2.791,2.7913,2.793,2.793,2.7931,2.7931,0,2.8167,2.8166,2.812,2.8105,2.81,2.8068,2.8054,2.8026,2.8022,2.7984,2.7975,2.7967,2.7931,2.7927,2.7886,2.7884,2.7824,2.783,2.7831,2.7831,2.7792,2.7795,2.7673,2.7656,2.7766,2.7765,2.7765,0,2.8118,2.8088,2.807,2.8051,2.8041,2.8011,2.7992,2.7995,2.7975,2.7949,2.7924,2.789,2.7863,2.7805,2.7793,2.7761,2.7764,2.7724,2.7759,2.7757,2.7759,2.776,2.7755,2.7716,2.7715,2.7714,2.7713,0,2.8029,2.803,2.8004,2.7976,2.7954,2.7933,2.7912,2.7896,2.7896,2.7872,2.7836,2.7815,2.7773,2.7737,2.7705,2.7692,2.77,2.7702,2.7691,2.7687,2.7688,2.7683,2.7809,2.7704,2.7705,2.7706,2.7706,2.7707,2.7964,2.7937,2.7919,2.7889,2.7874,2.7855,2.7828,2.782,2.7791,2.7758,2.7761,2.772,2.7699,2.7656,2.7641,2.7608,2.7621,2.7605,2.7601,2.7596,2.7591,2.7696,2.7602,2.7602,2.7603,2.7603,2.7603,0,2.7873,2.7862,2.7834,2.7806,2.7781,2.7794,2.7772,2.7749,2.7714,2.7695,2.7668,2.7625,2.759,2.7576,2.7542,2.7517,2.752,2.7508,2.7508,2.7504,2.7583,2.7594,2.7506,2.7506,2.7506,2.7506,2.7506,2.7506,2.7822,2.7777,2.7775,2.7721,2.7711,2.7673,2.7658,2.7639,2.7623,2.7575,2.7547,2.7539,2.752,2.7484,2.7452,2.7448,2.7433,2.7418,2.7416,2.7489,2.7499,2.7508,2.7519,2.7416,2.7416,2.7339,2.7339,2.7338]}]]